Weather in Kaybichevo

Russia / Republic of Mordovia     54°20′22″N   46°14′57″E
temp.,
°C
wind,
m/s
gust,
m/s
humid.,
%
clouds,
%
prec.,
mm/h
press.,
hPa
HPBL,
m
28 february, sun
sun2800:00−16nw4109393 0.0 1008334
03:00−18nw4109572 0.0 1010250
06:00−20nw379623 0.0 1011165
09:00−18nw379325 0.0 1012276
12:00−15nw479067 0.0 1012382
15:00−13nw478961 0.0 1013430
18:00−17nw359581 0.0 101593
21:00−19nw229765 0.0 101821
1 march, mon
mon100:00−19wnw229988 0.0 101920
03:00−20wnw2210091 0.1 102120
06:00−20wnw129968 0.0 102220
09:00−17wnw139462 0.0 1024152
12:00−12wnw238877 0.0 1024335
15:00−11w359081 0.0 1023342
18:00−14wsw339535 0.0 102246
21:00−14sw379760 0.0 1021144
2 march, tue
tue200:00−12sw41096100 0.0 1018278
03:00−9sw51394100 0.1 1013368
06:00−5sw61494100 0.8 1009606
09:00−3sw71296100 2.4 1005665
12:000sw61199100 1.9 1002677
15:000wnw4999100 3.6 1001610
18:00−2wnw3892100 0.2 1001226
21:00−2nw51196100 0.7 1003493
3 march, wed
wed300:00−4nw41194100 0.3 1003517
03:00−5wnw41194100 0.5 1004418
06:00−6wnw389599 0.1 1005240
09:00−4nw51092100 0.3 1006620
12:00−4nw6989100 0.1 1007718
15:00−4nw61090100 0.3 1009784
18:00−5nnw61290100 0.3 1010760
21:00−6nw5119298 0.3 1014441
4 march, thu
thu400:00−11wnw359582 0.0 101590
03:00−11wnw379585 0.1 1016180
06:00−13w369782 0.0 1017120
09:00−9w479487 0.1 1017274
12:00−5wsw479282 0.0 1016445
15:00−3wsw6109188 0.1 1014651
18:00−3sw71290100 0.0 1012668
21:00−3sw71590100 0.1 1010683